Terug naar catalogus

GONETS M 09

M19

ActiefCommunicatiePO
NORAD 40062·PAYLOAD·🇷🇺 Russia

Gelanceerd Jul 3, 2014 vanaf Plesetsk Cosmodrome

Loading…

Volgende Passages (komende 24 uur)

TLE

VersSource: Space-Track

Epoch: Sep 14, 2026, 14:18 UTC

1 40062U 14036B   26257.59616450 -.00000049  00000-0 -42210-3 0  9991
2 40062  82.5044 252.1129 0022396 323.5710  36.3845 12.42953125553569

Volg GONETS M 09 in realtime met AllMySat

Download on the App Store